Vertical_Velocity
-7 -4 1 2 1 3 2 4 -4 1 1 2 -0 1 1 -1 2 0 2 -2 2 -5
-2 2 -2 0 -3 4 4 4 -2 -2 0 1 0 0 2 4 6 3 -1 4 -2 -2
-1 3 1 -4 0 9 7 3 1 -1 2 -1 2 2 1 -0 4 2 2 0 1 1
-3 -1 -6 -1 3 5 7 7 -3 1 5 2 -2 2 -1 -0 1 4 4 0 2 -0
-3 -3 -3 9 3 -4 8 2 1 5 4 0 2 1 -0 2 1 5 3 3 1 2
-2 -2 17 1 1 2 3 3 3 3 5 1 0 -1 2 4 3 5 -1 1 2 1
-1 -2 9 2 -2 4 6 2 2 6 4 2 3 1 1 1 1 2 1 3 -2 1
-2 -1 -1 2 16 -2 4 3 5 -0 3 0 2 3 0 -2 -1 3 5 3 2 4
-3 1 20 -2 1 -0 -0 2 2 5 1 3 3 1 -0 1 -1 0 1 2 2 0
0 2 1 -2 0 3 0 8 4 1 1 -1 -1 3 2 3 -0 -1 -1 -2 -2 10
-3 -1 -1 -1 4 1 5 1 3 1 0 1 1 2 -2 -0 3 0 0 1 3 4
-3 -2 2 2 -1 1 0 2 1 1 -2 -1 0 -1 0 1 -2 -1 1 -5 -1 12
5 1 0 -2 -2 -1 -1 -2 -2 2 3 0 -1 -1 2 1 -1 -2 -1 -4 3 -1
-1 -0 1 -3 -0 -0 -1 -0 -3 -2 -1 -1 -1 1 1 -1 0 -6 -1 4 5 4
Height
5569 5569 5571 5573 5577 5584 5590 5598 5602 5610 5616 5622 5626 5631 5638 5643 5651 5658 5665 5671 5677 5682
5553 5552 5554 5555 5559 5566 5573 5582 5590 5598 5606 5612 5618 5623 5628 5635 5641 5648 5654 5660 5664 5669
5544 5540 5538 5538 5539 5547 5558 5568 5578 5587 5597 5604 5610 5615 5620 5626 5633 5639 5645 5650 5656 5660
5535 5531 5526 5523 5524 5533 5544 5557 5568 5577 5588 5595 5602 5608 5613 5619 5625 5630 5635 5641 5646 5650
5528 5525 5520 5517 5520 5529 5538 5549 5560 5569 5580 5588 5595 5602 5606 5612 5618 5623 5626 5631 5636 5641
5524 5521 5518 5516 5521 5528 5536 5546 5553 5562 5573 5582 5589 5595 5601 5606 5610 5615 5619 5623 5627 5630
5521 5519 5518 5520 5523 5529 5533 5540 5548 5557 5568 5577 5583 5590 5595 5600 5604 5608 5612 5616 5620 5623
5520 5518 5519 5522 5526 5528 5532 5538 5547 5555 5564 5571 5578 5585 5590 5594 5598 5602 5606 5610 5613 5615
5520 5520 5521 5523 5526 5529 5533 5537 5544 5553 5560 5567 5575 5581 5585 5590 5593 5597 5601 5604 5608 5609
5518 5521 5523 5526 5528 5532 5535 5539 5544 5551 5558 5564 5570 5576 5581 5585 5588 5591 5595 5598 5600 5603
5518 5520 5522 5525 5529 5533 5536 5540 5545 5550 5556 5561 5567 5573 5577 5581 5584 5587 5589 5591 5593 5594
5518 5519 5521 5525 5529 5532 5535 5539 5545 5549 5554 5560 5565 5569 5573 5576 5580 5581 5582 5584 5584 5585
5519 5520 5522 5526 5529 5532 5536 5541 5545 5549 5554 5557 5561 5564 5568 5572 5575 5576 5577 5576 5578 5582
5522 5523 5525 5528 5532 5535 5539 5543 5546 5549 5552 5555 5558 5561 5564 5567 5569 5571 5572 5576 5579 5582